Location: Gniazdowice
(50.2124°N, 20.2673°E)
Time: 00:21:09
(UTC+00:00)

Cosmos 1745 Rocket - Pass Details

Date: 23 May 2024
Orbit: 953 x 996 km, 83.0° (Epoch: 18 June)

Event Time Altitude Azimuth Distance (km) Brightness Sun altitude
Exits shadow 00:48:38 18° 206° (SSW) 2,179 5.2 -13.3°
Maximum altitude 00:53:18 62° 283° (WNW) 1,096 4.2 -12.9°
Drops below altitude 10° 00:59:33 10° 4° (N) 2,753 7.4 -12.3°
Sets 01:02:08 0° 8° (N) 3,711 8.3 -12.1°
